User: anonymous
Location: Copper Breaks State Park
(34.1132°N, 99.7492°W)
Time: 17:23:51
(UTC-05:00)
Language:

SL-16 R/B - Orbit

View from above orbital plane
View from above orbital plane
View from above satellite
View from above satellite

Ground track
Ground track

The orbit data is extracted from the following two-line orbital elements,

1 27006U 01056F   14232.42618116  .00000019  00000-0  67601-4 0  2096
2 27006 099.1723 037.3954 0015509 123.1963 289.6606 13.70916507635127
Epoch (UTC): 20 August 2014 10:13:42
Eccentricity: 0.0015509
inclination: 99.1723°
perigee height: 985 km
apogee height: 1008 km
right ascension of ascending node: 37.3954°
argument of perigee: 123.1963°
revolutions per day: 13.70916507
mean anomaly at epoch: 289.6606°
orbit number at epoch: 63512

The dashed part of the orbit path shows where the satellite is in the earth's shadow,  

DLR